Location: Chuathbaluk
(61.5726°N, 159.2454°W)
Time: 16:31:01
(UTC+00:00)

TIGRISAT - Pass Details

Date: 22 January 2021
Orbit: 605 x 688 km, 97.7° (Epoch: 06 March)

Event Time Altitude Azimuth Distance (km) Brightness Sun altitude
Rises 15:11:02 0° 110° (ESE) 2,887 ? -28.6°
Reaches altitude 10° 15:13:40 10° 93° (E) 1,996 ? -28.3°
Maximum altitude 15:16:46 20° 47° (NE) 1,479 ? -28.0°
Drops below altitude 10° 15:19:56 10° 1° (N) 2,036 ? -27.6°
Enters shadow 15:20:42 - 355° (N) 2,275 ? -27.5°
